Time,TemperatureF,DewpointF,PressureIn,WindDirection,WindDirectionDegrees,WindSpeedMPH,WindSpeedGustMPH,Humidity,HourlyPrecipIn,Conditions,Clouds,dailyrainin,SoftwareType,DateUTC
2013-11-01 00:01:00,63.3,57.5,29.79,SW,217,2.7,10.5,83,0.00,,,0.00,WX3IN1Plus v1.30,2013-11-01 04:01:00,
2013-11-01 00:02:00,63.3,57.5,29.79,SSW,213,4.1,10.5,83,0.00,,,0.00,WX3IN1Plus v1.30,2013-11-01 04:02:00,
2013-11-01 00:07:00,63.5,57.5,29.79,SW,222,9.3,9.7,82,0.00,,,0.00,WX3IN1Plus v1.30,2013-11-01 04:07:00,
2013-11-01 00:12:00,63.7,57.5,29.78,WSW,244,3.6,10.1,81,0.00,,,0.00,WX3IN1Plus v1.30,2013-11-01 04:12:00,
2013-11-01 00:17:00,63.9,57.3,29.79,SW,227,6.3,11.4,80,0.00,,,0.00,WX3IN1Plus v1.30,2013-11-01 04:17:00,
2013-11-01 00:22:00,64.3,57.0,29.78,SW,222,2.9,11.0,79,0.00,,,0.00,WX3IN1Plus v1.30,2013-11-01 04:22:00,
2013-11-01 00:27:00,64.3,57.0,29.78,SSW,208,3.9,8.3,79,0.00,,,0.00,WX3IN1Plus v1.30,2013-11-01 04:27:00,
2013-11-01 00:32:00,64.4,57.0,29.78,SE,130,2.4,10.8,78,0.00,,,0.00,WX3IN1Plus v1.30,2013-11-01 04:32:00,
2013-11-01 00:37:00,64.6,57.3,29.77,WSW,251,3.7,10.2,78,0.00,,,0.00,WX3IN1Plus v1.30,2013-11-01 04:37:00,
2013-11-01 00:42:00,64.8,57.0,29.77,SSW,213,5.6,16.7,77,0.00,,,0.00,WX3IN1Plus v1.30,2013-11-01 04:42:00,
2013-11-01 00:47:00,64.9,57.0,29.78,SW,222,4.4,11.8,77,0.00,,,0.00,WX3IN1Plus v1.30,2013-11-01 04:47:00,
2013-11-01 00:52:00,64.8,56.8,29.77,SSW,198,8.8,10.8,76,0.00,,,0.00,WX3IN1Plus v1.30,2013-11-01 04:52:00,
2013-11-01 00:57:00,65.1,57.0,29.76,West,277,6.4,13.9,76,0.00,,,0.00,WX3IN1Plus v1.30,2013-11-01 04:57:00,
2013-11-01 01:02:00,65.1,57.0,29.75,WSW,248,5.4,12.3,76,0.00,,,0.00,WX3IN1Plus v1.30,2013-11-01 05:02:00,
2013-11-01 01:07:00,65.3,56.8,29.75,SW,217,6.0,16.5,75,0.00,,,0.00,WX3IN1Plus v1.30,2013-11-01 05:07:00,
2013-11-01 01:12:00,65.3,56.8,29.75,SW,229,4.5,11.2,75,0.00,,,0.00,WX3IN1Plus v1.30,2013-11-01 05:12:00,
2013-11-01 01:17:00,65.3,56.8,29.74,South,184,9.1,14.1,75,0.00,,,0.00,WX3IN1Plus v1.30,2013-11-01 05:17:00,
2013-11-01 01:22:00,65.6,57.0,29.74,WSW,244,4.2,13.6,75,0.00,,,0.00,WX3IN1Plus v1.30,2013-11-01 05:22:00,
2013-11-01 01:27:00,65.6,57.0,29.74,SSW,198,5.7,12.5,75,0.00,,,0.00,WX3IN1Plus v1.30,2013-11-01 05:27:00,
2013-11-01 01:32:00,65.7,57.3,29.74,West,262,9.3,13.9,75,0.00,,,0.00,WX3IN1Plus v1.30,2013-11-01 05:32:00,
2013-11-01 01:37:00,65.8,57.3,29.74,SSW,194,8.5,14.8,75,0.00,,,0.00,WX3IN1Plus v1.30,2013-11-01 05:37:00,
2013-11-01 01:42:00,66.1,57.3,29.74,SW,217,7.5,17.0,74,0.00,,,0.00,WX3IN1Plus v1.30,2013-11-01 05:42:00,
2013-11-01 01:45:00,65.9,57.3,29.74,SSW,192,7.0,18.9,75,0.00,,,0.00,WX3IN1Plus v1.30,2013-11-01 05:45:00,
2013-11-01 01:50:00,66.2,57.3,29.74,SW,227,4.5,15.2,74,0.00,,,0.00,WX3IN1Plus v1.30,2013-11-01 05:50:00,
2013-11-01 01:55:00,66.2,57.5,29.74,WSW,237,5.9,16.2,75,0.00,,,0.00,WX3IN1Plus v1.30,2013-11-01 05:55:00,
2013-11-01 02:00:00,66.1,57.5,29.73,West,274,4.5,15.8,75,0.00,,,0.00,WX3IN1Plus v1.30,2013-11-01 06:00:00,
2013-11-01 02:05:00,66.2,57.5,29.73,SSW,203,11.2,15.0,75,0.00,,,0.00,WX3IN1Plus v1.30,2013-11-01 06:05:00,
2013-11-01 02:10:00,66.3,57.5,29.72,SW,216,6.0,13.3,75,0.00,,,0.00,WX3IN1Plus v1.30,2013-11-01 06:10:00,
2013-11-01 02:15:00,66.4,57.9,29.72,SW,225,7.5,14.8,75,0.00,,,0.00,WX3IN1Plus v1.30,2013-11-01 06:15:00,
2013-11-01 02:20:00,66.8,57.9,29.72,South,184,11.5,18.5,74,0.00,,,0.00,WX3IN1Plus v1.30,2013-11-01 06:20:00,
2013-11-01 02:25:00,66.9,57.9,29.72,WSW,241,4.9,14.1,74,0.00,,,0.00,WX3IN1Plus v1.30,2013-11-01 06:25:00,
2013-11-01 02:30:00,67.1,58.4,29.72,SW,234,11.6,15.7,74,0.00,,,0.00,WX3IN1Plus v1.30,2013-11-01 06:30:00,
2013-11-01 02:35:00,67.0,58.2,29.71,SSW,203,4.2,21.4,74,0.00,,,0.00,WX3IN1Plus v1.30,2013-11-01 06:35:00,
2013-11-01 02:40:00,67.1,58.4,29.71,South,181,5.5,14.3,74,0.00,,,0.00,WX3IN1Plus v1.30,2013-11-01 06:40:00,
2013-11-01 02:45:00,67.2,58.4,29.70,SW,220,9.0,18.2,74,0.00,,,0.00,WX3IN1Plus v1.30,2013-11-01 06:45:00,
2013-11-01 02:50:00,67.2,58.4,29.70,South,189,6.2,15.8,74,0.00,,,0.00,WX3IN1Plus v1.30,2013-11-01 06:50:00,
2013-11-01 02:55:00,67.6,58.8,29.70,WSW,243,7.4,13.1,74,0.00,,,0.00,WX3IN1Plus v1.30,2013-11-01 06:55:00,
2013-11-01 03:00:00,67.7,58.8,29.69,SW,226,7.2,15.4,74,0.00,,,0.00,WX3IN1Plus v1.30,2013-11-01 07:00:00,
2013-11-01 03:05:00,68.0,59.0,29.70,SW,223,3.6,21.3,73,0.00,,,0.00,WX3IN1Plus v1.30,2013-11-01 07:05:00,
2013-11-01 03:10:00,67.9,58.8,29.69,SSW,202,3.1,15.7,73,0.00,,,0.00,WX3IN1Plus v1.30,2013-11-01 07:10:00,
2013-11-01 03:15:00,67.8,58.4,29.69,SW,232,7.0,18.0,73,0.00,,,0.00,WX3IN1Plus v1.30,2013-11-01 07:15:00,
2013-11-01 03:20:00,68.0,59.0,29.69,SSW,206,5.4,15.8,73,0.00,,,0.00,WX3IN1Plus v1.30,2013-11-01 07:20:00,
2013-11-01 03:25:00,68.0,59.0,29.69,SW,222,8.5,19.0,73,0.00,,,0.00,WX3IN1Plus v1.30,2013-11-01 07:25:00,
2013-11-01 03:30:00,68.1,59.0,29.68,SW,222,7.0,17.9,73,0.00,,,0.00,WX3IN1Plus v1.30,2013-11-01 07:30:00,
2013-11-01 03:35:00,68.3,59.0,29.68,SW,220,9.1,15.1,73,0.00,,,0.00,WX3IN1Plus v1.30,2013-11-01 07:35:00,
2013-11-01 03:40:00,68.2,59.0,29.68,SSW,205,3.5,15.1,73,0.00,,,0.00,WX3IN1Plus v1.30,2013-11-01 07:40:00,
2013-11-01 03:45:00,68.5,59.3,29.68,SW,220,4.4,14.2,73,0.00,,,0.00,WX3IN1Plus v1.30,2013-11-01 07:45:00,
2013-11-01 03:50:00,68.4,59.3,29.68,SW,232,9.0,17.4,73,0.00,,,0.00,WX3IN1Plus v1.30,2013-11-01 07:50:00,
2013-11-01 03:55:00,68.4,59.3,29.68,SW,222,8.3,15.7,73,0.00,,,0.00,WX3IN1Plus v1.30,2013-11-01 07:55:00,
2013-11-01 04:00:00,68.8,59.5,29.68,SSW,210,5.3,19.2,73,0.00,,,0.00,WX3IN1Plus v1.30,2013-11-01 08:00:00,
2013-11-01 04:05:00,68.7,59.3,29.68,South,189,6.6,14.1,73,0.00,,,0.00,WX3IN1Plus v1.30,2013-11-01 08:05:00,
2013-11-01 04:10:00,68.7,59.3,29.67,SW,227,7.0,17.7,73,0.00,,,0.00,WX3IN1Plus v1.30,2013-11-01 08:10:00,
2013-11-01 04:15:00,69.1,59.9,29.66,SW,234,8.6,17.3,73,0.00,,,0.00,WX3IN1Plus v1.30,2013-11-01 08:15:00,
2013-11-01 04:20:00,68.9,59.9,29.66,SSW,194,3.4,18.0,73,0.00,,,0.00,WX3IN1Plus v1.30,2013-11-01 08:20:00,
2013-11-01 04:25:00,69.1,60.0,29.66,SW,215,8.0,16.8,74,0.00,,,0.00,WX3IN1Plus v1.30,2013-11-01 08:25:00,
2013-11-01 04:30:00,68.7,59.5,29.66,SSW,192,18.5,19.2,74,0.00,,,0.00,WX3IN1Plus v1.30,2013-11-01 08:30:00,
2013-11-01 04:35:00,68.7,59.9,29.66,SW,220,7.8,19.8,75,0.00,,,0.00,WX3IN1Plus v1.30,2013-11-01 08:35:00,
2013-11-01 04:40:00,68.4,59.9,29.65,SW,225,4.3,17.9,75,0.00,,,0.00,WX3IN1Plus v1.30,2013-11-01 08:40:00,
2013-11-01 04:45:00,68.6,59.9,29.64,SW,215,8.4,13.7,75,0.00,,,0.00,WX3IN1Plus v1.30,2013-11-01 08:45:00,
2013-11-01 04:50:00,68.7,59.9,29.65,SSW,199,5.5,18.7,75,0.00,,,0.00,WX3IN1Plus v1.30,2013-11-01 08:50:00,
2013-11-01 04:55:00,68.8,60.0,29.65,SW,232,6.7,16.4,75,0.00,,,0.00,WX3IN1Plus v1.30,2013-11-01 08:55:00,
2013-11-01 05:00:00,69.0,60.4,29.65,SSW,199,8.4,19.8,75,0.00,,,0.00,WX3IN1Plus v1.30,2013-11-01 09:00:00,
2013-11-01 05:05:00,69.1,60.4,29.65,West,264,9.2,11.7,75,0.00,,,0.00,WX3IN1Plus v1.30,2013-11-01 09:05:00,
2013-11-01 05:10:00,69.0,60.4,29.64,SSW,206,5.0,15.1,75,0.00,,,0.00,WX3IN1Plus v1.30,2013-11-01 09:10:00,
2013-11-01 05:15:00,69.4,60.8,29.64,SSW,210,14.9,22.3,75,0.00,,,0.00,WX3IN1Plus v1.30,2013-11-01 09:15:00,
2013-11-01 05:20:00,69.2,60.0,29.63,SW,219,9.7,15.6,74,0.00,,,0.00,WX3IN1Plus v1.30,2013-11-01 09:20:00,
2013-11-01 05:25:00,69.3,60.8,29.63,SW,230,10.1,23.5,75,0.00,,,0.00,WX3IN1Plus v1.30,2013-11-01 09:25:00,
2013-11-01 05:30:00,69.4,60.4,29.63,SSW,206,8.0,21.6,74,0.00,,,0.00,WX3IN1Plus v1.30,2013-11-01 09:30:00,
2013-11-01 05:35:00,69.5,60.8,29.63,WSW,240,6.9,18.6,74,0.00,,,0.00,WX3IN1Plus v1.30,2013-11-01 09:35:00,
2013-11-01 05:40:00,69.5,60.8,29.63,SSW,196,16.0,21.0,74,0.00,,,0.00,WX3IN1Plus v1.30,2013-11-01 09:40:00,
2013-11-01 05:45:00,69.5,60.8,29.63,SW,229,7.1,19.3,74,0.00,,,0.00,WX3IN1Plus v1.30,2013-11-01 09:45:00,
2013-11-01 05:50:00,69.6,60.8,29.63,WSW,247,8.7,14.4,74,0.00,,,0.00,WX3IN1Plus v1.30,2013-11-01 09:50:00,
2013-11-01 05:55:00,69.3,60.4,29.63,South,188,13.9,20.0,74,0.00,,,0.00,WX3IN1Plus v1.30,2013-11-01 09:55:00,
2013-11-01 06:00:00,69.5,60.8,29.62,South,188,8.4,16.9,74,0.00,,,0.00,WX3IN1Plus v1.30,2013-11-01 10:00:00,
2013-11-01 06:05:00,69.4,60.4,29.62,SW,215,4.0,13.7,74,0.00,,,0.00,WX3IN1Plus v1.30,2013-11-01 10:05:00,
2013-11-01 06:10:00,69.4,60.4,29.62,SSW,202,8.3,17.5,74,0.00,,,0.00,WX3IN1Plus v1.30,2013-11-01 10:10:00,
2013-11-01 06:15:00,69.6,60.8,29.63,SW,233,9.1,12.1,74,0.00,,,0.00,WX3IN1Plus v1.30,2013-11-01 10:15:00,
2013-11-01 06:20:00,69.5,60.8,29.62,SSW,202,13.7,22.8,74,0.00,,,0.00,WX3IN1Plus v1.30,2013-11-01 10:20:00,
2013-11-01 06:25:00,69.5,60.8,29.62,South,189,8.7,17.7,74,0.00,,,0.00,WX3IN1Plus v1.30,2013-11-01 10:25:00,
2013-11-01 06:30:00,69.8,60.9,29.62,SW,220,8.2,14.5,74,0.00,,,0.00,WX3IN1Plus v1.30,2013-11-01 10:30:00,
2013-11-01 06:35:00,69.6,60.8,29.62,South,185,6.4,15.0,74,0.00,,,0.00,WX3IN1Plus v1.30,2013-11-01 10:35:00,
2013-11-01 06:40:00,69.4,60.4,29.63,South,184,7.0,15.3,74,0.00,,,0.00,WX3IN1Plus v1.30,2013-11-01 10:40:00,
2013-11-01 06:45:00,69.5,60.9,29.63,SSE,165,4.0,11.9,75,0.00,,,0.00,WX3IN1Plus v1.30,2013-11-01 10:45:00,
2013-11-01 06:50:00,69.6,60.9,29.63,WSW,247,7.3,14.9,75,0.00,,,0.00,WX3IN1Plus v1.30,2013-11-01 10:50:00,
2013-11-01 06:55:00,69.5,60.9,29.62,SW,223,5.5,21.1,75,0.00,,,0.00,WX3IN1Plus v1.30,2013-11-01 10:55:00,
2013-11-01 07:00:00,69.5,60.8,29.62,WSW,246,9.0,19.5,74,0.00,,,0.00,WX3IN1Plus v1.30,2013-11-01 11:00:00,
2013-11-01 07:05:00,69.6,59.9,29.62,SW,226,8.8,12.7,72,0.00,,,0.00,WX3IN1Plus v1.30,2013-11-01 11:05:00,
2013-11-01 07:10:00,69.5,59.5,29.62,SW,216,6.5,20.8,71,0.00,,,0.00,WX3IN1Plus v1.30,2013-11-01 11:10:00,
2013-11-01 07:15:00,69.5,59.5,29.61,SSW,203,8.9,12.4,71,0.00,,,0.00,WX3IN1Plus v1.30,2013-11-01 11:15:00,
2013-11-01 07:20:00,69.5,59.5,29.61,WSW,240,9.5,15.6,71,0.00,,,0.00,WX3IN1Plus v1.30,2013-11-01 11:20:00,
2013-11-01 07:25:00,69.8,59.9,29.60,SW,229,7.5,15.2,71,0.00,,,0.00,WX3IN1Plus v1.30,2013-11-01 11:25:00,
2013-11-01 07:30:00,69.6,59.5,29.61,SSW,205,4.9,17.3,71,0.00,,,0.00,WX3IN1Plus v1.30,2013-11-01 11:30:00,
2013-11-01 07:35:00,69.7,59.5,29.61,SSW,198,6.4,19.2,71,0.00,,,0.00,WX3IN1Plus v1.30,2013-11-01 11:35:00,
2013-11-01 07:40:00,69.8,60.0,29.61,South,171,8.6,15.7,72,0.00,,,0.00,WX3IN1Plus v1.30,2013-11-01 11:40:00,
2013-11-01 07:45:00,69.5,59.9,29.62,SSW,194,7.2,18.7,72,0.00,,,0.00,WX3IN1Plus v1.30,2013-11-01 11:45:00,
2013-11-01 07:50:00,69.3,60.4,29.62,South,171,3.2,11.0,74,0.01,,,0.01,WX3IN1Plus v1.30,2013-11-01 11:50:00,
2013-11-01 07:55:00,68.8,60.8,29.62,WSW,247,8.3,11.8,76,0.01,,,0.01,WX3IN1Plus v1.30,2013-11-01 11:55:00,
2013-11-01 08:00:00,68.5,60.8,29.62,WSW,257,5.4,11.0,77,0.02,,,0.02,WX3IN1Plus v1.30,2013-11-01 12:00:00,
2013-11-01 08:05:00,68.3,60.8,29.62,West,265,6.4,13.3,78,0.02,,,0.02,WX3IN1Plus v1.30,2013-11-01 12:05:00,
2013-11-01 08:10:00,67.9,60.4,29.63,West,264,4.8,13.6,78,0.02,,,0.02,WX3IN1Plus v1.30,2013-11-01 12:10:00,
2013-11-01 08:15:00,67.9,60.4,29.63,SSW,213,6.4,13.0,78,0.02,,,0.02,WX3IN1Plus v1.30,2013-11-01 12:15:00,
2013-11-01 08:20:00,67.9,60.8,29.63,SSW,210,3.0,10.5,79,0.02,,,0.02,WX3IN1Plus v1.30,2013-11-01 12:20:00,
2013-11-01 08:25:00,67.7,60.4,29.63,SW,217,5.0,9.5,79,0.02,,,0.02,WX3IN1Plus v1.30,2013-11-01 12:25:00,
2013-11-01 08:30:00,67.7,60.4,29.63,SW,219,2.9,7.5,79,0.02,,,0.02,WX3IN1Plus v1.30,2013-11-01 12:30:00,
2013-11-01 08:35:00,68.0,60.8,29.64,South,177,5.4,8.0,78,0.02,,,0.02,WX3IN1Plus v1.30,2013-11-01 12:35:00,
2013-11-01 08:40:00,68.0,60.8,29.64,SW,217,5.9,8.4,78,0.02,,,0.02,WX3IN1Plus v1.30,2013-11-01 12:40:00,
2013-11-01 08:45:00,67.9,60.4,29.64,South,185,4.4,8.2,78,0.02,,,0.02,WX3IN1Plus v1.30,2013-11-01 12:45:00,
2013-11-01 08:50:00,68.2,60.4,29.64,SSW,209,5.2,11.1,77,0.01,,,0.02,WX3IN1Plus v1.30,2013-11-01 12:50:00,
2013-11-01 08:55:00,68.3,60.4,29.65,WSW,250,7.1,13.5,77,0.00,,,0.02,WX3IN1Plus v1.30,2013-11-01 12:55:00,
2013-11-01 09:00:00,68.4,60.4,29.65,SSW,198,4.9,11.0,76,0.00,,,0.02,WX3IN1Plus v1.30,2013-11-01 13:00:00,
2013-11-01 09:05:00,68.5,60.4,29.66,WSW,250,1.6,10.9,76,0.00,,,0.02,WX3IN1Plus v1.30,2013-11-01 13:05:00,
2013-11-01 09:10:00,68.5,58.8,29.67,WNW,282,2.9,9.8,72,0.00,,,0.02,WX3IN1Plus v1.30,2013-11-01 13:10:00,
2013-11-01 09:15:00,67.8,56.8,29.67,WSW,253,4.2,11.1,69,0.00,,,0.02,WX3IN1Plus v1.30,2013-11-01 13:15:00,
2013-11-01 09:20:00,66.2,57.5,29.69,North,358,4.4,8.7,75,0.07,,,0.09,WX3IN1Plus v1.30,2013-11-01 13:20:00,
2013-11-01 09:25:00,64.9,57.5,29.69,NNW,331,5.7,8.0,79,0.10,,,0.12,WX3IN1Plus v1.30,2013-11-01 13:25:00,
2013-11-01 09:30:00,63.6,57.3,29.69,WNW,299,3.9,13.9,81,0.12,,,0.14,WX3IN1Plus v1.30,2013-11-01 13:30:00,
2013-11-01 09:35:00,62.6,57.0,29.69,SSW,210,8.3,10.6,83,0.12,,,0.14,WX3IN1Plus v1.30,2013-11-01 13:35:00,
2013-11-01 09:40:00,62.1,57.3,29.69,South,188,2.0,8.3,85,0.13,,,0.15,WX3IN1Plus v1.30,2013-11-01 13:40:00,
2013-11-01 09:45:00,61.5,56.4,29.69,NNW,334,4.1,4.9,85,0.14,,,0.16,WX3IN1Plus v1.30,2013-11-01 13:45:00,
2013-11-01 09:50:00,61.2,56.4,29.68,WNW,286,0.0,7.6,85,0.15,,,0.17,WX3IN1Plus v1.30,2013-11-01 13:50:00,
2013-11-01 09:55:00,60.9,56.3,29.68,SSE,160,0.0,5.1,86,0.15,,,0.17,WX3IN1Plus v1.30,2013-11-01 13:55:00,
2013-11-01 10:00:00,60.7,56.4,29.68,WNW,292,1.0,3.6,87,0.15,,,0.17,WX3IN1Plus v1.30,2013-11-01 14:00:00,
2013-11-01 10:05:00,60.7,56.4,29.68,North,357,1.0,6.5,87,0.16,,,0.18,WX3IN1Plus v1.30,2013-11-01 14:05:00,
2013-11-01 10:10:00,60.5,55.9,29.69,WSW,251,0.0,4.8,86,0.16,,,0.18,WX3IN1Plus v1.30,2013-11-01 14:10:00,
2013-11-01 10:15:00,60.6,56.3,29.69,SW,215,0.0,3.5,87,0.16,,,0.19,WX3IN1Plus v1.30,2013-11-01 14:15:00,
2013-11-01 10:20:00,60.5,56.4,29.69,SW,223,4.5,9.3,88,0.09,,,0.19,WX3IN1Plus v1.30,2013-11-01 14:20:00,
2013-11-01 10:25:00,60.5,56.4,29.69,SSW,208,3.7,7.3,88,0.07,,,0.19,WX3IN1Plus v1.30,2013-11-01 14:25:00,
2013-11-01 10:30:00,60.5,56.4,29.69,SW,222,1.4,6.8,88,0.05,,,0.19,WX3IN1Plus v1.30,2013-11-01 14:30:00,
2013-11-01 10:35:00,60.5,56.8,29.69,SSW,199,3.4,6.8,89,0.05,,,0.19,WX3IN1Plus v1.30,2013-11-01 14:35:00,
2013-11-01 10:40:00,60.6,56.8,29.68,SSW,205,7.3,10.3,89,0.03,,,0.19,WX3IN1Plus v1.30,2013-11-01 14:40:00,
2013-11-01 10:45:00,60.4,56.8,29.67,SW,227,2.7,8.3,89,0.03,,,0.19,WX3IN1Plus v1.30,2013-11-01 14:45:00,
2013-11-01 10:50:00,60.7,57.0,29.67,SW,225,4.5,8.4,89,0.02,,,0.19,WX3IN1Plus v1.30,2013-11-01 14:50:00,
2013-11-01 10:55:00,60.9,57.0,29.67,South,181,4.0,6.7,89,0.02,,,0.19,WX3IN1Plus v1.30,2013-11-01 14:55:00,
2013-11-01 11:00:00,61.1,57.3,29.67,WSW,253,3.4,6.7,89,0.02,,,0.19,WX3IN1Plus v1.30,2013-11-01 15:00:00,
2013-11-01 11:05:00,61.3,57.5,29.67,SSW,195,4.1,7.5,89,0.01,,,0.19,WX3IN1Plus v1.30,2013-11-01 15:05:00,
2013-11-01 11:10:00,61.4,57.5,29.67,SW,215,5.0,6.8,89,0.01,,,0.19,WX3IN1Plus v1.30,2013-11-01 15:10:00,
2013-11-01 11:15:00,61.7,58.2,29.67,SSW,210,4.7,6.3,89,0.00,,,0.19,WX3IN1Plus v1.30,2013-11-01 15:15:00,
2013-11-01 11:20:00,62.2,58.4,29.67,SSW,205,5.5,8.8,89,0.00,,,0.19,WX3IN1Plus v1.30,2013-11-01 15:20:00,
2013-11-01 11:25:00,62.7,58.8,29.67,SSW,199,3.4,7.4,88,0.00,,,0.19,WX3IN1Plus v1.30,2013-11-01 15:25:00,
2013-11-01 11:30:00,62.9,58.8,29.66,South,181,3.7,9.0,88,0.00,,,0.19,WX3IN1Plus v1.30,2013-11-01 15:30:00,
2013-11-01 11:35:00,63.3,59.0,29.67,WSW,250,1.4,7.0,87,0.00,,,0.19,WX3IN1Plus v1.30,2013-11-01 15:35:00,
2013-11-01 11:40:00,63.4,58.8,29.67,SW,225,2.3,7.7,86,0.00,,,0.19,WX3IN1Plus v1.30,2013-11-01 15:40:00,
2013-11-01 11:45:00,63.8,59.3,29.67,SW,217,3.2,6.0,86,0.00,,,0.19,WX3IN1Plus v1.30,2013-11-01 15:45:00,
2013-11-01 11:50:00,64.1,59.3,29.67,SSW,209,5.4,6.3,85,0.00,,,0.19,WX3IN1Plus v1.30,2013-11-01 15:50:00,
2013-11-01 11:55:00,64.5,58.8,29.67,SW,233,2.8,7.5,83,0.00,,,0.19,WX3IN1Plus v1.30,2013-11-01 15:55:00,
2013-11-01 12:00:00,64.6,59.0,29.66,SW,217,4.3,6.6,83,0.00,,,0.19,WX3IN1Plus v1.30,2013-11-01 16:00:00,
2013-11-01 12:05:00,65.2,59.3,29.66,SW,219,3.9,7.4,82,0.00,,,0.19,WX3IN1Plus v1.30,2013-11-01 16:05:00,
2013-11-01 12:10:00,65.4,59.3,29.66,SSW,208,4.8,8.4,82,0.00,,,0.19,WX3IN1Plus v1.30,2013-11-01 16:10:00,
2013-11-01 12:15:00,65.6,59.5,29.66,SW,236,4.4,7.2,82,0.00,,,0.19,WX3IN1Plus v1.30,2013-11-01 16:15:00,
2013-11-01 12:20:00,65.8,59.3,29.66,SSW,196,5.2,7.0,80,0.00,,,0.19,WX3IN1Plus v1.30,2013-11-01 16:20:00,
2013-11-01 12:25:00,65.7,59.3,29.66,SW,233,3.6,5.3,80,0.00,,,0.19,WX3IN1Plus v1.30,2013-11-01 16:25:00,
2013-11-01 12:30:00,66.0,59.3,29.67,SSW,205,1.4,8.0,80,0.00,,,0.19,WX3IN1Plus v1.30,2013-11-01 16:30:00,
2013-11-01 12:35:00,66.1,59.5,29.67,SSW,196,3.3,6.2,80,0.00,,,0.19,WX3IN1Plus v1.30,2013-11-01 16:35:00,
2013-11-01 12:40:00,66.4,59.3,29.67,SSW,205,3.6,6.2,79,0.00,,,0.19,WX3IN1Plus v1.30,2013-11-01 16:40:00,
2013-11-01 12:45:00,66.6,60.4,29.66,WSW,240,2.3,7.0,81,0.00,,,0.19,WX3IN1Plus v1.30,2013-11-01 16:45:00,
2013-11-01 12:50:00,66.8,60.0,29.66,SSW,192,0.0,5.6,80,0.00,,,0.19,WX3IN1Plus v1.30,2013-11-01 16:50:00,
2013-11-01 12:55:00,67.0,59.3,29.66,SSW,212,5.5,5.9,77,0.00,,,0.19,WX3IN1Plus v1.30,2013-11-01 16:55:00,
2013-11-01 13:00:00,67.2,60.8,29.66,NNW,338,0.7,8.4,80,0.00,,,0.19,WX3IN1Plus v1.30,2013-11-01 17:00:00,
2013-11-01 13:05:00,67.6,60.0,29.66,SSW,194,3.1,7.0,78,0.00,,,0.19,WX3IN1Plus v1.30,2013-11-01 17:05:00,
2013-11-01 13:10:00,67.9,60.0,29.66,South,185,5.2,8.4,77,0.00,,,0.19,WX3IN1Plus v1.30,2013-11-01 17:10:00,
2013-11-01 13:15:00,68.2,59.5,29.65,South,188,1.2,8.5,75,0.00,,,0.19,WX3IN1Plus v1.30,2013-11-01 17:15:00,
2013-11-01 13:20:00,68.7,59.5,29.65,SW,219,0.0,7.4,74,0.00,,,0.19,WX3IN1Plus v1.30,2013-11-01 17:20:00,
2013-11-01 13:25:00,69.2,59.0,29.65,SW,215,0.1,8.9,71,0.00,,,0.19,WX3IN1Plus v1.30,2013-11-01 17:25:00,
2013-11-01 13:30:00,69.4,58.8,29.65,East,97,0.7,6.7,70,0.00,,,0.19,WX3IN1Plus v1.30,2013-11-01 17:30:00,
2013-11-01 13:35:00,69.9,59.3,29.65,NNW,330,0.0,4.6,70,0.00,,,0.19,WX3IN1Plus v1.30,2013-11-01 17:35:00,
2013-11-01 13:40:00,69.9,59.0,29.66,SSW,198,2.3,7.7,69,0.00,,,0.19,WX3IN1Plus v1.30,2013-11-01 17:40:00,
2013-11-01 13:45:00,70.1,58.4,29.66,SW,217,2.7,6.5,68,0.00,,,0.19,WX3IN1Plus v1.30,2013-11-01 17:45:00,
2013-11-01 13:50:00,69.7,58.2,29.66,SSW,210,1.0,6.8,68,0.00,,,0.19,WX3IN1Plus v1.30,2013-11-01 17:50:00,
2013-11-01 13:55:00,69.7,58.8,29.66,SW,234,4.3,6.6,69,0.00,,,0.19,WX3IN1Plus v1.30,2013-11-01 17:55:00,
2013-11-01 14:00:00,69.4,58.4,29.66,WSW,244,3.4,6.8,69,0.00,,,0.19,WX3IN1Plus v1.30,2013-11-01 18:00:00,
2013-11-01 14:05:00,69.5,58.8,29.66,SSW,192,4.3,7.3,69,0.00,,,0.19,WX3IN1Plus v1.30,2013-11-01 18:05:00,
2013-11-01 14:10:00,69.5,58.8,29.66,SSW,209,2.2,9.2,69,0.00,,,0.19,WX3IN1Plus v1.30,2013-11-01 18:10:00,
2013-11-01 14:15:00,69.3,57.9,29.66,SSW,212,1.8,6.2,68,0.00,,,0.19,WX3IN1Plus v1.30,2013-11-01 18:15:00,
2013-11-01 14:20:00,69.4,57.9,29.65,SW,227,1.2,2.5,68,0.00,,,0.19,WX3IN1Plus v1.30,2013-11-01 18:20:00,
2013-11-01 14:25:00,69.5,58.2,29.65,SW,226,1.0,6.8,68,0.00,,,0.19,WX3IN1Plus v1.30,2013-11-01 18:25:00,
2013-11-01 14:30:00,69.7,58.2,29.65,SW,233,0.0,4.7,68,0.00,,,0.19,WX3IN1Plus v1.30,2013-11-01 18:30:00,
2013-11-01 14:36:00,69.8,58.4,29.64,SW,234,0.5,2.7,68,0.00,,,0.19,WX3IN1Plus v1.30,2013-11-01 18:36:00,
2013-11-01 14:41:00,70.2,58.4,29.64,WSW,248,0.0,3.0,67,0.00,,,0.19,WX3IN1Plus v1.30,2013-11-01 18:41:00,
2013-11-01 14:46:00,70.2,57.9,29.63,West,268,2.2,6.8,66,0.00,,,0.19,WX3IN1Plus v1.30,2013-11-01 18:46:00,
2013-11-01 14:51:00,69.8,57.5,29.63,WNW,291,0.0,4.7,66,0.00,,,0.19,WX3IN1Plus v1.30,2013-11-01 18:51:00,
2013-11-01 14:56:00,70.0,58.2,29.62,WSW,240,0.9,2.7,67,0.00,,,0.19,WX3IN1Plus v1.30,2013-11-01 18:56:00,
2013-11-01 15:01:00,69.8,58.2,29.62,SSW,194,0.0,4.7,67,0.00,,,0.19,WX3IN1Plus v1.30,2013-11-01 19:01:00,
2013-11-01 15:06:00,69.6,57.9,29.62,NNW,329,2.1,2.7,67,0.00,,,0.19,WX3IN1Plus v1.30,2013-11-01 19:06:00,
2013-11-01 15:11:00,69.6,57.9,29.62,NW,320,3.1,4.2,67,0.00,,,0.19,WX3IN1Plus v1.30,2013-11-01 19:11:00,
2013-11-01 15:16:00,69.7,57.9,29.63,SSW,212,1.6,5.2,67,0.00,,,0.19,WX3IN1Plus v1.30,2013-11-01 19:16:00,
2013-11-01 15:21:00,69.8,58.2,29.64,North,4,0.0,7.2,67,0.00,,,0.19,WX3IN1Plus v1.30,2013-11-01 19:21:00,
2013-11-01 15:26:00,70.1,57.5,29.64,SE,137,3.8,7.7,66,0.00,,,0.19,WX3IN1Plus v1.30,2013-11-01 19:26:00,
2013-11-01 15:31:00,70.6,57.9,29.64,WSW,241,4.1,6.1,65,0.00,,,0.19,WX3IN1Plus v1.30,2013-11-01 19:31:00,
2013-11-01 15:36:00,70.7,58.2,29.64,WNW,288,0.1,6.0,65,0.00,,,0.19,WX3IN1Plus v1.30,2013-11-01 19:36:00,
2013-11-01 15:41:00,71.0,56.8,29.64,SSE,165,0.0,5.2,62,0.00,,,0.19,WX3IN1Plus v1.30,2013-11-01 19:41:00,
2013-11-01 15:46:00,71.2,57.0,29.64,SW,223,1.9,3.4,62,0.00,,,0.19,WX3IN1Plus v1.30,2013-11-01 19:46:00,
2013-11-01 15:51:00,71.1,57.0,29.64,SSW,212,0.9,4.2,62,0.00,,,0.19,WX3IN1Plus v1.30,2013-11-01 19:51:00,
2013-11-01 15:56:00,71.6,57.3,29.64,South,189,8.0,8.1,61,0.00,,,0.19,WX3IN1Plus v1.30,2013-11-01 19:56:00,
2013-11-01 16:01:00,71.8,57.5,29.64,SW,216,3.8,8.4,61,0.00,,,0.19,WX3IN1Plus v1.30,2013-11-01 20:01:00,
2013-11-01 16:06:00,72.0,55.7,29.64,NNW,340,1.3,5.9,57,0.00,,,0.19,WX3IN1Plus v1.30,2013-11-01 20:06:00,
2013-11-01 16:11:00,72.3,55.9,29.63,SW,226,0.0,4.7,57,0.00,,,0.19,WX3IN1Plus v1.30,2013-11-01 20:11:00,
2013-11-01 16:16:00,72.5,55.2,29.63,SW,225,1.9,5.5,55,0.00,,,0.19,WX3IN1Plus v1.30,2013-11-01 20:16:00,
2013-11-01 16:21:00,72.8,55.4,29.63,SSW,192,0.4,6.4,55,0.00,,,0.19,WX3IN1Plus v1.30,2013-11-01 20:21:00,
2013-11-01 16:26:00,72.6,54.6,29.63,NW,316,1.6,4.3,54,0.00,,,0.19,WX3IN1Plus v1.30,2013-11-01 20:26:00,
2013-11-01 16:31:00,73.0,56.4,29.64,SW,232,1.7,6.3,57,0.00,,,0.19,WX3IN1Plus v1.30,2013-11-01 20:31:00,
2013-11-01 16:36:00,72.9,56.4,29.64,SSW,213,3.1,6.0,57,0.00,,,0.19,WX3IN1Plus v1.30,2013-11-01 20:36:00,
2013-11-01 16:41:00,73.0,56.4,29.64,SW,226,4.2,5.2,57,0.00,,,0.19,WX3IN1Plus v1.30,2013-11-01 20:41:00,
2013-11-01 16:46:00,72.4,55.9,29.64,SSW,194,4.5,5.5,57,0.00,,,0.19,WX3IN1Plus v1.30,2013-11-01 20:46:00,
2013-11-01 16:51:00,72.7,57.0,29.64,SSW,198,4.1,4.5,58,0.00,,,0.19,WX3IN1Plus v1.30,2013-11-01 20:51:00,
2013-11-01 16:56:00,72.5,56.8,29.64,South,191,1.9,5.5,58,0.00,,,0.19,WX3IN1Plus v1.30,2013-11-01 20:56:00,
2013-11-01 17:01:00,72.4,56.8,29.63,SSW,201,2.7,6.8,59,0.00,,,0.19,WX3IN1Plus v1.30,2013-11-01 21:01:00,
2013-11-01 17:06:00,72.0,56.4,29.64,SSE,147,4.3,6.7,59,0.00,,,0.19,WX3IN1Plus v1.30,2013-11-01 21:06:00,
2013-11-01 17:11:00,71.8,56.4,29.64,SW,227,1.6,6.7,59,0.00,,,0.19,WX3IN1Plus v1.30,2013-11-01 21:11:00,
2013-11-01 17:16:00,71.4,56.4,29.63,SSW,192,0.0,3.9,60,0.00,,,0.19,WX3IN1Plus v1.30,2013-11-01 21:16:00,
2013-11-01 17:21:00,71.1,56.3,29.63,SSW,194,0.0,2.2,60,0.00,,,0.19,WX3IN1Plus v1.30,2013-11-01 21:21:00,
2013-11-01 17:26:00,71.1,56.8,29.63,SSW,194,0.0,0.0,61,0.00,,,0.19,WX3IN1Plus v1.30,2013-11-01 21:26:00,
2013-11-01 17:31:00,70.9,56.4,29.63,SSW,194,0.0,0.0,61,0.00,,,0.19,WX3IN1Plus v1.30,2013-11-01 21:31:00,
2013-11-01 17:36:00,70.6,57.0,29.63,SSE,158,3.4,7.2,63,0.00,,,0.19,WX3IN1Plus v1.30,2013-11-01 21:36:00,
2013-11-01 17:41:00,70.1,56.8,29.63,South,185,0.8,6.4,64,0.00,,,0.19,WX3IN1Plus v1.30,2013-11-01 21:41:00,
2013-11-01 17:46:00,69.7,57.3,29.63,SSE,165,1.5,3.7,66,0.00,,,0.19,WX3IN1Plus v1.30,2013-11-01 21:46:00,
2013-11-01 17:51:00,69.5,57.9,29.63,SSE,158,0.0,4.6,67,0.00,,,0.19,WX3IN1Plus v1.30,2013-11-01 21:51:00,
2013-11-01 17:56:00,69.0,57.5,29.63,SW,236,1.8,3.4,68,0.00,,,0.19,WX3IN1Plus v1.30,2013-11-01 21:56:00,
2013-11-01 18:01:00,68.7,57.0,29.63,SSE,150,0.0,2.2,68,0.00,,,0.19,WX3IN1Plus v1.30,2013-11-01 22:01:00,
2013-11-01 18:06:00,68.5,57.5,29.63,SSE,150,0.0,0.0,69,0.00,,,0.19,WX3IN1Plus v1.30,2013-11-01 22:06:00,
2013-11-01 18:11:00,68.4,57.9,29.64,SSE,150,0.0,0.0,70,0.00,,,0.19,WX3IN1Plus v1.30,2013-11-01 22:11:00,
2013-11-01 18:16:00,67.9,57.9,29.64,SSE,150,0.0,0.0,71,0.00,,,0.19,WX3IN1Plus v1.30,2013-11-01 22:16:00,
2013-11-01 18:21:00,67.4,57.5,29.64,SSE,150,0.0,0.0,72,0.00,,,0.19,WX3IN1Plus v1.30,2013-11-01 22:21:00,
2013-11-01 18:26:00,67.0,57.3,29.64,SSE,150,0.0,0.0,72,0.00,,,0.19,WX3IN1Plus v1.30,2013-11-01 22:26:00,
2013-11-01 18:31:00,66.7,57.5,29.64,SSE,150,0.0,0.0,73,0.00,,,0.19,WX3IN1Plus v1.30,2013-11-01 22:31:00,
2013-11-01 18:36:00,66.3,57.3,29.64,SSE,150,0.0,0.0,74,0.00,,,0.00,WX3IN1Plus v1.30,2013-11-01 22:36:00,
2013-11-01 18:41:00,65.8,57.3,29.64,SSE,150,0.0,0.0,75,0.00,,,0.00,WX3IN1Plus v1.30,2013-11-01 22:41:00,
2013-11-01 18:46:00,65.7,57.9,29.64,SSE,150,0.0,0.0,76,0.00,,,0.00,WX3IN1Plus v1.30,2013-11-01 22:46:00,
2013-11-01 18:51:00,65.2,57.3,29.64,SSE,150,0.0,0.0,76,0.00,,,0.00,WX3IN1Plus v1.30,2013-11-01 22:51:00,
2013-11-01 18:56:00,64.7,57.0,29.64,SSE,150,0.0,0.0,77,0.00,,,0.00,WX3IN1Plus v1.30,2013-11-01 22:56:00,
2013-11-01 19:01:00,64.5,56.8,29.64,SSE,150,0.0,0.0,77,0.00,,,0.00,WX3IN1Plus v1.30,2013-11-01 23:01:00,
2013-11-01 19:06:00,64.0,56.4,29.65,SSE,150,0.0,0.0,78,0.00,,,0.00,WX3IN1Plus v1.30,2013-11-01 23:06:00,
2013-11-01 19:11:00,63.5,56.3,29.65,SSE,150,0.0,0.0,78,0.00,,,0.00,WX3IN1Plus v1.30,2013-11-01 23:11:00,
2013-11-01 19:16:00,63.4,56.3,29.65,SSE,150,0.0,0.0,79,0.00,,,0.00,WX3IN1Plus v1.30,2013-11-01 23:16:00,
2013-11-01 19:21:00,63.3,56.8,29.65,SSE,150,0.0,0.0,80,0.00,,,0.00,WX3IN1Plus v1.30,2013-11-01 23:21:00,
2013-11-01 19:26:00,63.0,56.4,29.65,SSE,150,0.0,0.0,80,0.00,,,0.00,WX3IN1Plus v1.30,2013-11-01 23:26:00,
2013-11-01 19:31:00,62.5,56.3,29.65,SSE,150,0.0,0.0,81,0.00,,,0.00,WX3IN1Plus v1.30,2013-11-01 23:31:00,
2013-11-01 19:36:00,62.2,55.9,29.64,SSE,150,0.0,0.0,81,0.00,,,0.00,WX3IN1Plus v1.30,2013-11-01 23:36:00,
2013-11-01 19:41:00,61.9,55.9,29.65,SSE,150,0.0,0.0,82,0.00,,,0.00,WX3IN1Plus v1.30,2013-11-01 23:41:00,
2013-11-01 19:46:00,61.7,55.9,29.65,SSE,150,0.0,0.0,82,0.00,,,0.00,WX3IN1Plus v1.30,2013-11-01 23:46:00,
2013-11-01 19:51:00,61.5,55.4,29.64,SSE,150,0.0,0.0,82,0.00,,,0.00,WX3IN1Plus v1.30,2013-11-01 23:51:00,
2013-11-01 19:56:00,61.3,55.2,29.64,SSE,150,0.0,0.0,81,0.00,,,0.00,WX3IN1Plus v1.30,2013-11-01 23:56:00,
2013-11-01 20:01:00,60.8,54.6,29.64,SSE,150,0.0,0.0,81,0.00,,,0.00,WX3IN1Plus v1.30,2013-11-02 00:01:00,
2013-11-01 20:06:00,60.7,55.7,29.65,SSE,150,0.0,0.0,84,0.00,,,0.00,WX3IN1Plus v1.30,2013-11-02 00:06:00,
2013-11-01 20:11:00,60.5,55.4,29.65,SSE,150,0.0,0.0,84,0.00,,,0.00,WX3IN1Plus v1.30,2013-11-02 00:11:00,
2013-11-01 20:16:00,60.5,55.4,29.65,SSE,150,0.0,0.0,84,0.00,,,0.00,WX3IN1Plus v1.30,2013-11-02 00:16:00,
2013-11-01 20:21:00,60.1,55.2,29.65,SSE,150,0.0,0.0,84,0.00,,,0.00,WX3IN1Plus v1.30,2013-11-02 00:21:00,
2013-11-01 20:26:00,59.7,54.8,29.65,SSE,150,0.0,0.0,85,0.00,,,0.00,WX3IN1Plus v1.30,2013-11-02 00:26:00,
2013-11-01 20:31:00,59.5,54.6,29.65,SSE,150,0.0,0.0,85,0.00,,,0.00,WX3IN1Plus v1.30,2013-11-02 00:31:00,
2013-11-01 20:36:00,59.5,54.6,29.66,SSE,150,0.0,0.0,85,0.00,,,0.00,WX3IN1Plus v1.30,2013-11-02 00:36:00,
2013-11-01 20:41:00,59.4,54.6,29.66,SSE,150,0.0,0.0,85,0.00,,,0.00,WX3IN1Plus v1.30,2013-11-02 00:41:00,
2013-11-01 20:46:00,59.1,54.3,29.66,SSE,150,0.0,0.0,85,0.00,,,0.00,WX3IN1Plus v1.30,2013-11-02 00:46:00,
2013-11-01 20:51:00,58.8,54.3,29.66,SSE,150,0.0,0.0,86,0.00,,,0.00,WX3IN1Plus v1.30,2013-11-02 00:51:00,
2013-11-01 20:56:00,58.8,54.3,29.66,SSE,150,0.0,0.0,86,0.00,,,0.00,WX3IN1Plus v1.30,2013-11-02 00:56:00,
2013-11-01 21:01:00,58.9,54.3,29.66,SSE,150,0.0,0.0,86,0.00,,,0.00,WX3IN1Plus v1.30,2013-11-02 01:01:00,
2013-11-01 21:06:00,58.9,54.6,29.66,SSE,150,0.0,0.0,87,0.00,,,0.00,WX3IN1Plus v1.30,2013-11-02 01:06:00,
2013-11-01 21:11:00,58.6,54.6,29.66,SSE,150,0.0,0.0,88,0.00,,,0.00,WX3IN1Plus v1.30,2013-11-02 01:11:00,
2013-11-01 21:16:00,58.6,53.7,29.66,SSE,150,0.0,0.0,85,0.00,,,0.00,WX3IN1Plus v1.30,2013-11-02 01:16:00,
2013-11-01 21:21:00,58.4,53.6,29.67,SSE,150,0.0,0.0,85,0.00,,,0.00,WX3IN1Plus v1.30,2013-11-02 01:21:00,
2013-11-01 21:26:00,58.4,53.6,29.66,SSE,150,0.0,0.0,85,0.00,,,0.00,WX3IN1Plus v1.30,2013-11-02 01:26:00,
2013-11-01 21:31:00,58.3,53.6,29.67,SSE,150,0.0,0.0,85,0.00,,,0.00,WX3IN1Plus v1.30,2013-11-02 01:31:00,
2013-11-01 21:36:00,58.0,53.2,29.67,SSE,150,0.0,0.0,85,0.00,,,0.00,WX3IN1Plus v1.30,2013-11-02 01:36:00,
2013-11-01 21:41:00,57.8,53.2,29.66,SSE,150,0.0,0.0,85,0.00,,,0.00,WX3IN1Plus v1.30,2013-11-02 01:41:00,
2013-11-01 21:46:00,57.7,53.2,29.66,SSE,150,0.0,0.0,86,0.00,,,0.00,WX3IN1Plus v1.30,2013-11-02 01:46:00,
2013-11-01 21:51:00,57.8,54.1,29.67,SSE,150,0.0,0.0,88,0.00,,,0.00,WX3IN1Plus v1.30,2013-11-02 01:51:00,
2013-11-01 21:56:00,57.6,53.7,29.67,SSE,150,0.0,0.0,88,0.00,,,0.00,WX3IN1Plus v1.30,2013-11-02 01:56:00,
2013-11-01 22:01:00,57.5,53.6,29.67,SSE,150,0.0,0.0,88,0.00,,,0.00,WX3IN1Plus v1.30,2013-11-02 02:01:00,
2013-11-01 22:06:00,57.3,53.7,29.66,SSE,150,0.0,0.0,89,0.00,,,0.00,WX3IN1Plus v1.30,2013-11-02 02:06:00,
2013-11-01 22:11:00,57.4,53.7,29.66,SSE,150,0.0,0.0,89,0.00,,,0.00,WX3IN1Plus v1.30,2013-11-02 02:11:00,
2013-11-01 22:16:00,57.3,53.7,29.66,SSE,150,0.0,0.0,89,0.00,,,0.00,WX3IN1Plus v1.30,2013-11-02 02:16:00,
2013-11-01 22:21:00,57.3,53.7,29.66,SSE,150,0.0,0.0,89,0.00,,,0.00,WX3IN1Plus v1.30,2013-11-02 02:21:00,
2013-11-01 22:26:00,57.4,54.1,29.66,SSE,150,0.0,0.0,90,0.00,,,0.00,WX3IN1Plus v1.30,2013-11-02 02:26:00,
2013-11-01 22:31:00,57.3,54.1,29.66,SSE,150,0.0,0.0,90,0.00,,,0.00,WX3IN1Plus v1.30,2013-11-02 02:31:00,
2013-11-01 22:36:00,57.4,54.1,29.66,SSE,150,0.0,0.0,90,0.00,,,0.00,WX3IN1Plus v1.30,2013-11-02 02:36:00,
2013-11-01 22:41:00,57.5,54.1,29.66,SSE,150,0.0,0.0,90,0.00,,,0.00,WX3IN1Plus v1.30,2013-11-02 02:41:00,
2013-11-01 22:46:00,57.5,54.1,29.66,SSE,150,0.0,0.0,90,0.00,,,0.00,WX3IN1Plus v1.30,2013-11-02 02:46:00,
2013-11-01 22:51:00,57.3,54.1,29.66,SSE,150,0.0,0.0,90,0.00,,,0.00,WX3IN1Plus v1.30,2013-11-02 02:51:00,
2013-11-01 22:56:00,57.2,54.1,29.66,SSE,150,0.0,0.0,90,0.00,,,0.00,WX3IN1Plus v1.30,2013-11-02 02:56:00,
2013-11-01 23:01:00,57.1,53.7,29.67,SSE,150,0.0,0.0,90,0.00,,,0.00,WX3IN1Plus v1.30,2013-11-02 03:01:00,
2013-11-01 23:06:00,57.0,53.6,29.66,SSE,150,0.0,0.0,90,0.00,,,0.00,WX3IN1Plus v1.30,2013-11-02 03:06:00,
2013-11-01 23:11:00,56.9,53.6,29.66,SSE,150,0.0,0.0,90,0.00,,,0.00,WX3IN1Plus v1.30,2013-11-02 03:11:00,
2013-11-01 23:16:00,56.6,53.2,29.67,SSE,150,0.0,0.0,90,0.00,,,0.00,WX3IN1Plus v1.30,2013-11-02 03:16:00,
2013-11-01 23:21:00,56.4,52.8,29.66,SSE,150,0.0,0.0,90,0.00,,,0.00,WX3IN1Plus v1.30,2013-11-02 03:21:00,
2013-11-01 23:26:00,56.2,52.8,29.66,SSE,150,0.0,0.0,90,0.00,,,0.00,WX3IN1Plus v1.30,2013-11-02 03:26:00,
2013-11-01 23:31:00,56.2,52.8,29.66,SSE,150,0.0,0.0,90,0.00,,,0.00,WX3IN1Plus v1.30,2013-11-02 03:31:00,
2013-11-01 23:36:00,56.0,52.7,29.66,SSE,150,0.0,0.0,90,0.00,,,0.00,WX3IN1Plus v1.30,2013-11-02 03:36:00,
2013-11-01 23:41:00,55.8,52.3,29.66,SSE,150,0.0,0.0,90,0.00,,,0.00,WX3IN1Plus v1.30,2013-11-02 03:41:00,
2013-11-01 23:46:00,55.6,52.3,29.66,SSE,150,0.0,0.0,90,0.00,,,0.00,WX3IN1Plus v1.30,2013-11-02 03:46:00,
2013-11-01 23:51:00,55.6,52.3,29.66,SSE,150,0.0,0.0,90,0.00,,,0.00,WX3IN1Plus v1.30,2013-11-02 03:51:00,
2013-11-01 23:56:00,55.6,52.3,29.66,SSE,150,0.0,0.0,90,0.00,,,0.00,WX3IN1Plus v1.30,2013-11-02 03:56:00,